This demonstration page uses our WeatherBlox Daily Observations layout. Learn more.

Left ArrowRight Arrow

38.88101, -77.10428

Hourly Observations for September 20, 2021

Temp ( °F °C ) Dew Point ( °F °C ) Humidity (%) Winds ( mph kmh ) Pressure ( in mb ) Visibility ( mi km ) Precip ( " mm )
12:52 am 00:52 Mostly Clear 69 20.6 58 14.4 68 68 E 5 7 30.23 1024 10 16 N/A
1:52 am 01:52 Partly Cloudy 67 19.4 60 15.6 79 79 SSW 5 7 30.24 1024 10 16 N/A
2:52 am 02:52 Mostly Cloudy 67 19.4 60 15.6 79 79 S 5 7 30.24 1024 10 16 N/A
3:52 am 03:52 Mostly Cloudy 67 19.4 60 15.6 79 79 E 3 6 30.24 1024 10 16 N/A
4:52 am 04:52 Partly Cloudy 67 19.4 60 15.6 79 79 ENE 6 9 30.24 1024 10 16 N/A
5:52 am 05:52 Partly Cloudy 65 18.3 60 15.6 84 84 ENE 7 11 30.25 1024 10 16 N/A
6:52 am 06:52 Mostly Cloudy 64 17.8 60 15.6 87 87 ENE 7 11 30.27 1025 10 16 N/A
7:52 am 07:52 Partly Cloudy 66 18.9 61 16.1 84 84 NE 6 9 30.28 1026 10 16 N/A
8:52 am 08:52 Partly Cloudy 69 20.6 60 15.6 73 73 NE 6 9 30.29 1026 10 16 N/A
9:52 am 09:52 Partly Cloudy 73 22.8 62 16.7 69 69 NE 5 7 30.30 1026 10 16 N/A
10:52 am 10:52 Partly Cloudy 75 23.9 59 15 58 58 SE 8 13 30.30 1026 10 16 N/A
11:52 am 11:52 Partly Cloudy 77 25 59 15 54 54 ESE 7 11 30.30 1026 10 16 N/A
12:52 pm 12:52 Mostly Cloudy 78 25.6 57 13.9 48 48 E 6 9 30.29 1026 10 16 N/A
1:52 pm 13:52 Mostly Cloudy 80 26.7 60 15.6 51 51 ESE 7 11 30.28 1025 10 16 N/A
2:52 pm 14:52 Mostly Cloudy 79 26.1 58 14.4 49 49 ESE 13 20 30.27 1025 10 16 N/A
3:52 pm 15:52 Mostly Cloudy 79 26.1 58 14.4 49 49 SE 8 13 30.27 1025 10 16 N/A
4:52 pm 16:52 Mostly Cloudy 78 25.6 58 14.4 50 50 ESE 9 15 30.26 1025 10 16 N/A
5:52 pm 17:52 Mostly Cloudy 77 25 58 14.4 52 52 ESE 10 17 30.26 1025 10 16 N/A
6:52 pm 18:52 Mostly Cloudy 75 23.9 59 15 58 58 ESE 10 17 30.27 1025 10 16 N/A
7:52 pm 19:52 Cloudy 74 23.3 58 14.4 57 57 ESE 9 15 30.29 1026 10 16 N/A
8:52 pm 20:52 Mostly Cloudy 72 22.2 58 14.4 61 61 E 9 15 30.30 1026 10 16 N/A
9:52 pm 21:52 Mostly Cloudy 70 21.1 59 15 68 68 ESE 9 15 30.31 1026 10 16 N/A
10:52 pm 22:52 Mostly Cloudy 69 20.6 58 14.4 68 68 N N/A 30.31 1026 10 16 N/A
11:52 pm 23:52 Partly Cloudy 68 20 58 14.4 70 70 NE 5 7 30.31 1026 10 16 N/A

Powered by AerisWeather